Location: Castellare
(42.4669°N, 9.4728°E)
Time: 18:25:14
(UTC+00:00)

Cosmos 1743 Rocket - Pass Details

Date: 17 February 2020
Orbit: 604 x 633 km, 82.6° (Epoch: 27 March)

Event Time Altitude Azimuth Distance (km) Brightness Sun altitude
Rises 05:08:13 0° 342° (NNW) 2,870 6.8 -13.3°
Reaches altitude 10° 05:10:34 10° 334° (NNW) 1,960 5.8 -12.9°
Maximum altitude 05:14:29 34° 269° (W) 997 4.1 -12.1°
Drops below altitude 10° 05:18:23 10° 204° (SSW) 1,948 5.9 -11.4°
Sets 05:20:44 0° 195° (SSW) 2,849 6.9 -11.0°
